Regional Weather Roundup
Issued by NWS Portland, ME

Home | Current Version | Previous Version | Text Only | Print | Product List | Glossary On
Versions: 1 2 3 4 5 6 7 8 9 10 11 12 13 14 15 16 17 18 19 20 21 22 23 24 25 26 27 28 29 30 31 32 33 34 35 36 37 38 39 40 41 42 43 44 45 46 47 48 49 50
000
ASUS41 KGYX 230110
RWRGYX
WEATHER ROUNDUP FOR MAINE AND NEW HAMPSHIRE
NATIONAL WEATHER SERVICE GRAY ME
900 PM EDT FRI SEP 22 2017

MEZ002-005-006-010-012-015-018-020-021-024-026-027-029-230200-
MAINE

CITY           SKY/WX    TMP DP  RH WIND       PRES   REMARKS
PORTLAND       MOCLDY    62  52  69 E6        30.07S
SANFORD        CLOUDY    63  53  70 E5        30.07S
BAR HARBOR     CLOUDY    66  44  45 E5        30.07F
WISCASSET      CLOUDY    68  49  50 CALM      30.07S
ROCKLAND       CLOUDY    63  51  65 NE3       30.07R
FRYEBURG       CLOUDY    66  52  60 NE3       30.09R
LEWISTONAUBURN CLOUDY    63  54  72 CALM      30.08S
AUGUSTA        PTCLDY    65  48  54 NE3       30.08S
WATERVILLE     CLOUDY    63  52  67 CALM      30.05F
BANGOR         CLEAR     61  50  67 CALM      30.07F
GREENVILLE       N/A     57  42  57 CALM      30.11R
MILLINOCKET    CLEAR     52  48  86 W3        30.10S
HOULTON        CLEAR     48  47  96 CALM      30.08S
PRESQUE ISLE   CLEAR     53  51  93 SW3       30.09S
FRENCHVILLE    CLEAR     62  46  55 S6        30.07F
CARIBOU        CLEAR     58  49  72 CALM      30.07F
$$

NHZ002-005-008-009-011-012-014-230200-
NEW HAMPSHIRE

CITY           SKY/WX    TMP DP  RH WIND       PRES   REMARKS
PORTSMOUTH     CLOUDY    63  53  69 N7        30.04R
ROCHESTER      CLOUDY    65  53  65 NE3       30.05S
NASHUA         CLOUDY    67  53  61 N6        30.04S
MANCHESTER     CLOUDY    68  51  54 N7        30.03S
CONCORD        CLOUDY    67  51  56 CALM      30.06S
LACONIA        MOCLDY    60  51  72 NW3       30.08S
PLYMOUTH       CLOUDY    63  57  81 CALM      30.08R
BERLIN         CLOUDY    55  49  80 CALM      30.11S
WHITEFIELD     MOCLDY    58  47  66 CALM      30.09S
JAFFREY        CLOUDY    65  52  62 VRB3      30.07S
KEENE          PTCLDY    61  51  70 CALM      30.06S
LEBANON        CLOUDY    65  58  78 CALM      30.06R
MT WASHINGTON  FOG       52  52 100 E22         N/A  VSB 1/16
$$

VTZ005-007-008-230200-
VERMONT

CITY           SKY/WX    TMP DP  RH WIND       PRES   REMARKS
ST JOHNSBURY     N/A     59  51  75 MISG      30.08S
MONTPELIER     CLEAR     57  53  86 CALM      30.14R
BURLINGTON     CLEAR     62  55  77 SE3       30.08R
$$

MAZ007-012-024-CTZ003-RIZ002-NYZ038-NYZ072-230200-
SOUTHERN NEW ENGLAND AND NY

CITY           SKY/WX    TMP DP  RH WIND       PRES   REMARKS
WORCESTER      CLOUDY    60  54  80 NE15G24   30.03S
NANTUCKET      CLOUDY    62  62 100 NE25G33   29.82R FOG
PROVIDENCE     CLOUDY    61  60  97 N18G31    29.96S
HARTFORD       MOCLDY    71  54  54 N15       30.01R
ALBANY         PTCLDY    67  50  54 N6        30.06R
NEW YORK CITY  MOCLDY    76  55  48 N13G20    29.96R
$$

ANZ081-ANZ082-ANZ150-NHZ014-MEZ023>029-230200-
COASTAL MARINE OBSERVATIONS

STATION/POSITION TIME  TEMP    WIND        PRES    WAVE
                       AIR SEA DIR/SP/G            HT/PER
                 (UTC) (F)     (DEG/KT/KT) (MB)    (FT/S)
MOUNT DESERT ROC 0100   58      40/ 14/ 16 1017.7F
MATINICUS ROCK   0000   57      50/ 17/ 18 1017.3R
ISLE OF SHOALS   0000   61      40/ 22/ 23 1016.3R
JEFFREYS LEDGE   0006      61                N/A    10/ 9
GEORGES BANK BUO 2350   74 72              1010.0   10/ 9
$$

.............KEY..............
   WCI - WIND CHILL
   TC  - TEMPERATURE IN CELSIUS
   VSB - VISIBILITY IN MILES
   HX  - HEAT INDEX
   FAIR- INDICATES FEW OR NO CLOUDS BELOW 12,000 FT, WITH NO
         SIGNIFICANT WEATHER AND/OR OBSTRUCTIONS TO VISIBILITY.






USA.gov is the U.S. government's official web portal to all federal, state and local government web resources and services.